Regional Weather Roundup
Issued by NWS

Home | Current Version | Previous Version | Text Only | Print | Product List | Glossary Off
Versions: 1 2 3 4 5 6 7 8 9 10 11 12 13 14 15 16 17 18 19 20 21 22 23 24 25 26 27 28 29 30 31 32 33 34 35 36 37 38 39 40 41 42 43 44 45 46 47 48 49 50

000
ASUS45 KCYS 202110
RWRWY

WYOMING REGIONAL WEATHER ROUNDUP
NATIONAL WEATHER SERVICE CHEYENNE WY
200 PM MST SAT DEC 20 2014

NOTE:  "FAIR" INDICATES FEW OR NO CLOUDS BELOW 12,000 FEET
WITH NO SIGNIFICANT WEATHER AND/OR OBSTRUCTIONS TO VISIBILITY.

WYZ001-202200-
YELLOWSTONE NATIONAL PARK

CITY           SKY/WX    TMP DP  RH WIND       PRES   REMARKS
LK YELLOWSTONE   N/A     28  23  81 CALM      29.92F
W YELLOWSTONE  NOT AVBL

$$
WYZ002>013-054>058-071-098>099-202200-
NORTHERN WYOMING

CITY           SKY/WX    TMP DP  RH WIND       PRES   REMARKS
JACKSON        CLOUDY    34  28  80 S12       29.95F FOG     WCI  25
CODY           FAIR      39  27  60 SE8       29.85F WCI  34
GREYBULL       FAIR      25  18  74 E6        29.92F WCI  18
WORLAND        FAIR      26  17  68 CALM      29.91F
SHERIDAN       FAIR      39  28  64 N6        29.85F WCI  35
BUFFALO        FAIR      39  23  52 SE7       29.87F WCI  34
GILLETTE       FAIR      43  25  49 S3        29.87F
HULETT           N/A    N/A N/A N/A MISG        N/A
NEWCASTLE      FAIR      43  25  49 W6        29.90F

$$
WYZ014>020-022>026-101>103-202200-
CENTRAL WYOMING

CITY           SKY/WX    TMP DP  RH WIND       PRES   REMARKS
BIG PINEY      CLOUDY    33  23  66 E5        29.97F WCI  29
PINEDALE       CLOUDY    32  25  74 CALM      29.98F
DUBOIS         NOT AVBL
LANDER         FAIR      25  20  81 CALM      29.91F HAZE
RIVERTON       FAIR      23  18  81 CALM      29.92F
CASPER         FAIR      35  26  69 SW16      29.91F WCI  25
DOUGLAS        FAIR      45  24  43 W14       29.91F

$$
WYZ021-027>030-104>119-202200-
SOUTHERN WYOMING

CITY           SKY/WX    TMP DP  RH WIND       PRES   REMARKS
EVANSTON       LGT SNOW  31  30  96 SW15      30.01F FOG     WCI  20
KEMMERER       LGT SNOW  32  30  93 SW17      29.99F WCI  21
FORT BRIDGER   LGT SNOW  33  32  96 W13G18    30.04S WCI  24
ROCK SPRINGS   LGT SNOW  31  29  92 SW13      30.00S VSB 3/4 WCI  21
DIXON          FLURRIES  32  25  75 SW12      30.07F WCI  23
RAWLINS        PTSUNNY   33  24  69 W9        29.98F WCI  25
SARATOGA       CLOUDY    32  27  80 W10       30.01F WCI  24
LARAMIE        CLOUDY    34  22  61 S16       29.95F WCI  24
CHEYENNE       FAIR      45  18  34 W16G29    29.94F
TORRINGTON     FAIR     N/A N/A N/A W14       29.91F
PINE BLUFFS    FAIR      46  23  39 NW14      29.93F

$$



USA.gov is the U.S. government's official web portal to all federal, state and local government web resources and services.